Starlink 11352

operational
NORAD ID: 62880 Int'l Des: 2025-024 Owner: SPXS Country: US Constellation: starlink
LEOCIRCULAR

Über Starlink 11352

Beschreibung wird geladen...

Live-Position

3D-Globus wird geladen...

Nächste Überflüge

Höhenverlauf

Altitude vs Time

uPlot chart will show altitude changes over time

Zweizeiliger Elementsatz

1 62880U 25024B 26036.35438600 .00202769 00000-0 15394-2 0 9993
2 62880 42.9998 16.1367 0001122 233.8596 126.2168 15.70933266 58385
Epoch: 5. Feb. 2026 • Age: 17 hours

Aktueller Status

Höhe 357.5 km
Geschwindigkeit 7.70 km/s
Subsatellitenpunkt -11.39°S, 154.93°W
Startdatum 4. Feb. 2025
Alter 1 years
Typ internet

Technische Details

Klassifizierung Payload
Masse 960.00 kg
Trockenmasse 910.00 kg
Gesamtmasse 960.00 kg
Länge 0.30 m
Durchmesser 4.10 m
Spannweite 29.00 m
Form Box + pan
Hersteller SPXS
Bus-Typ Starlink V2MD
Phasenstatus In Orbit
Besitzer/Staat SPXS/US

Große Konstellationen

Loading constellations...